Location: Peterborough
(44.3091°N, 78.3197°W)
Time: 01:46:08
(UTC-04:00)

Vanguard 1 Rocket - Pass Details

Date: 26 March 2023
Orbit: 655 x 4220 km, 34.3° (Epoch: 02 June)

Event Time Altitude Azimuth Distance (km) Brightness Sun altitude
Rises 21:17:26 0° 208° (SSW) 8,328 12.4 -18.9°
Reaches altitude 10° 21:24:15 10° 199° (SSW) 7,409 12.0 -20.0°
Maximum altitude 21:44:55 33° 147° (SSE) 5,162 10.7 -23.3°
Enters shadow 21:49:51 30° 126° (SE) 5,011 10.5 -24.1°
